Terminal Aerodrome Forecast
Issued by NWS Louisville, KY

Home | Current Version | Previous Version | Text Only | Print | Product List | Glossary On
Versions: 1 2 3 4 5 6 7 8 9 10 11 12 13 14
000
FTUS43 KLMK 041133
TAFSDF
TAF
KSDF 041133Z 0412/0518 29004KT P6SM SCT250
     FM041300 29009KT P6SM SCT050 BKN250
     FM050100 VRB03KT P6SM BKN250=

USA.gov is the U.S. government's official web portal to all federal, state and local government web resources and services.